�������l�o���
Date,Time,MP-1(��Sv/h),MP-2(��Sv/h),MP-3(��Sv/h),MP-4(��Sv/h),MP-5(��Sv/h),MP-6(��Sv/h),MP-7(��Sv/h),MP-8(��Sv/h),����,����(m/s),���J
2017/12/11,00:00,0.887,1.465,0.924,1.738,1.182,0.495,0.875,0.841,�k��,0.6,��
2017/12/11,00:10,0.887,1.464,0.924,1.737,1.188,0.493,0.875,0.845,-,CALM,��
2017/12/11,00:20,0.887,1.465,0.925,1.738,1.183,0.494,0.875,0.844,�쓌,1.1,��
2017/12/11,00:30,0.889,1.465,0.926,1.738,1.177,0.494,0.876,0.842,-,CALM,��
2017/12/11,00:40,0.888,1.466,0.924,1.735,1.183,0.495,0.876,0.842,-,CALM,��
2017/12/11,00:50,0.888,1.465,0.925,1.737,1.183,0.493,0.875,0.842,�쓌,0.6,��
2017/12/11,01:00,0.887,1.467,0.922,1.736,1.184,0.495,0.875,0.843,-,CALM,��
2017/12/11,01:10,0.887,1.464,0.923,1.735,1.179,0.493,0.877,0.842,��쓌,0.9,��
2017/12/11,01:20,0.889,1.466,0.924,1.736,1.182,0.495,0.876,0.843,�쓌,0.6,��
2017/12/11,01:30,0.886,1.466,0.926,1.735,1.181,0.493,0.875,0.844,��,0.6,��
2017/12/11,01:40,0.886,1.464,0.923,1.735,1.180,0.495,0.877,0.846,��쐼,0.9,��
2017/12/11,01:50,0.888,1.464,0.923,1.738,1.182,0.493,0.878,0.842,��,1.7,��
2017/12/11,02:00,0.888,1.464,0.925,1.736,1.179,0.494,0.876,0.843,�쐼,1.5,��
2017/12/11,02:10,0.887,1.465,0.926,1.737,1.181,0.494,0.877,0.844,��쐼,2.0,��
2017/12/11,02:20,0.885,1.466,0.924,1.736,1.181,0.494,0.875,0.842,��쐼,1.9,��
2017/12/11,02:30,0.888,1.463,0.925,1.735,1.183,0.493,0.876,0.844,��,2.0,��
2017/12/11,02:40,0.887,1.464,0.923,1.738,1.181,0.496,0.876,0.844,��쓌,2.6,��
2017/12/11,02:50,0.888,1.466,0.925,1.738,1.178,0.495,0.877,0.843,��,2.9,��
2017/12/11,03:00,0.888,1.462,0.924,1.737,1.180,0.494,0.876,0.844,��,2.5,��
2017/12/11,03:10,0.887,1.465,0.924,1.737,1.180,0.495,0.876,0.843,��,1.7,��
2017/12/11,03:20,0.889,1.467,0.925,1.739,1.181,0.495,0.876,0.844,��,0.8,��
2017/12/11,03:30,0.889,1.465,0.925,1.737,1.183,0.494,0.877,0.842,-,CALM,��
2017/12/11,03:40,0.888,1.463,0.925,1.738,1.180,0.496,0.878,0.845,��쓌,0.9,��
2017/12/11,03:50,0.885,1.466,0.923,1.736,1.180,0.495,0.876,0.843,��쓌,1.4,��
2017/12/11,04:00,0.888,1.466,0.925,1.737,1.183,0.495,0.877,0.844,��쓌,1.9,��
2017/12/11,04:10,0.888,1.466,0.923,1.739,1.183,0.495,0.877,0.842,�쓌,1.9,��
2017/12/11,04:20,0.887,1.463,0.924,1.738,1.182,0.494,0.876,0.842,�쓌,2.0,��
2017/12/11,04:30,0.887,1.465,0.924,1.735,1.182,0.493,0.876,0.844,�쓌,1.5,��
2017/12/11,04:40,0.887,1.463,0.925,1.735,1.180,0.495,0.875,0.841,���쓌,1.5,��
2017/12/11,04:50,0.887,1.463,0.926,1.736,1.182,0.495,0.877,0.842,�쓌,1.4,��
2017/12/11,05:00,0.887,1.464,0.923,1.736,1.180,0.493,0.877,0.846,��쓌,1.4,��
2017/12/11,05:10,0.887,1.463,0.923,1.738,1.177,0.494,0.877,0.845,��쐼,0.9,��
2017/12/11,05:20,0.887,1.463,0.924,1.737,1.182,0.494,0.876,0.846,��,2.0,��
2017/12/11,05:30,0.886,1.464,0.926,1.736,1.182,0.493,0.878,0.842,��쓌,1.7,��
2017/12/11,05:40,0.888,1.464,0.924,1.739,1.180,0.495,0.876,0.843,��쓌,2.3,��
2017/12/11,05:50,0.887,1.464,0.926,1.737,1.180,0.494,0.877,0.842,��쓌,3.2,��
2017/12/11,06:00,0.888,1.463,0.922,1.737,1.180,0.495,0.876,0.841,��,1.7,��
2017/12/11,06:10,0.886,1.467,0.923,1.737,1.179,0.494,0.877,0.843,�쓌,0.8,��
2017/12/11,06:20,0.885,1.464,0.925,1.736,1.178,0.495,0.876,0.843,-,CALM,��
2017/12/11,06:30,0.887,1.462,0.925,1.738,1.178,0.493,0.877,0.844,��,0.6,��
2017/12/11,06:40,0.885,1.467,0.924,1.735,1.181,0.495,0.873,0.844,���k��,2.8,��
2017/12/11,06:50,0.888,1.465,0.924,1.737,1.181,0.494,0.876,0.843,���k��,2.9,��
2017/12/11,07:00,0.886,1.463,0.925,1.737,1.179,0.494,0.876,0.845,��,3.8,��
2017/12/11,07:10,0.887,1.464,0.924,1.737,1.181,0.494,0.876,0.844,���k��,4.3,��
2017/12/11,07:20,0.887,1.465,0.925,1.736,1.180,0.493,0.876,0.845,���k��,4.2,��
2017/12/11,07:30,0.888,1.464,0.924,1.735,1.179,0.494,0.876,0.845,�k��,3.4,��
2017/12/11,07:40,0.889,1.465,0.925,1.737,1.179,0.496,0.880,0.844,�k��,3.4,��
2017/12/11,07:50,0.888,1.463,0.925,1.737,1.179,0.494,0.879,0.846,�k�k��,3.4,��
2017/12/11,08:00,0.888,1.465,0.925,1.736,1.183,0.496,0.878,0.844,�k�k��,3.6,��
2017/12/11,08:10,0.890,1.464,0.924,1.739,1.180,0.494,0.878,0.844,�k�k��,2.8,��
2017/12/11,08:20,0.887,1.465,0.927,1.741,1.181,0.495,0.880,0.846,�k��,4.6,��
2017/12/11,08:30,0.888,1.465,0.926,1.742,1.180,0.494,0.879,0.844,�k��,3.6,��
2017/12/11,08:40,0.891,1.464,0.927,1.740,1.183,0.495,0.878,0.846,�k��,4.5,��
2017/12/11,08:50,0.889,1.462,0.927,1.741,1.183,0.495,0.880,0.843,�k��,3.5,��
2017/12/11,09:00,0.890,1.461,0.926,1.742,1.183,0.496,0.880,0.845,�k�k��,2.2,��
2017/12/11,09:10,0.892,1.460,0.928,1.740,1.181,0.496,0.882,0.846,�k��,3.5,��
2017/12/11,09:20,0.890,1.466,0.930,1.740,1.183,0.496,0.881,0.846,�k��,3.7,��
2017/12/11,09:30,0.891,1.468,0.928,1.743,1.185,0.498,0.882,0.846,�k��,1.7,��
2017/12/11,09:40,0.893,1.463,0.930,1.742,1.185,0.497,0.879,0.846,-,CALM,��
2017/12/11,09:50,0.890,1.465,0.926,1.744,1.186,0.497,0.878,0.846,-,CALM,��
2017/12/11,10:00,0.892,1.463,0.927,1.743,1.184,0.496,0.878,0.847,��,0.6,��
2017/12/11,10:10,0.890,1.466,0.927,1.744,1.183,0.496,0.879,0.846,�쐼,1.2,��
2017/12/11,10:20,0.891,1.467,0.920,1.742,1.184,0.498,0.879,0.846,��,1.4,��
2017/12/11,10:30,0.892,1.461,0.921,1.746,1.187,0.499,0.879,0.847,��쐼,1.2,��
2017/12/11,10:40,0.892,1.463,0.928,1.743,1.185,0.498,0.880,0.847,��쓌,0.9,��
2017/12/11,10:50,0.890,1.461,0.929,1.745,1.187,0.496,0.881,0.847,�쐼,0.9,��
2017/12/11,11:00,0.889,1.465,0.929,1.743,1.187,0.499,0.882,0.848,���쐼,1.5,��
2017/12/11,11:10,0.892,1.467,0.929,1.744,1.188,0.496,0.880,0.847,��,5.7,��
2017/12/11,11:20,0.891,1.465,0.932,1.746,1.191,0.497,0.880,0.848,��,7.8,��
2017/12/11,11:30,0.892,1.465,0.929,1.748,1.186,0.498,0.880,0.846,��,10.3,��
2017/12/11,11:40,0.893,1.468,0.931,1.747,1.188,0.499,0.881,0.848,��,8.7,��
2017/12/11,11:50,0.894,1.469,0.931,1.746,1.189,0.495,0.881,0.848,��,7.3,��
2017/12/11,12:00,0.893,1.469,0.932,1.749,1.190,0.496,0.880,0.848,��,10.3,��
2017/12/11,12:10,0.894,1.469,0.932,1.745,1.191,0.497,0.882,0.846,���k��,12.7,��
2017/12/11,12:20,0.895,1.467,0.933,1.746,1.188,0.499,0.883,0.849,��,12.1,��
2017/12/11,12:30,0.893,1.470,0.934,1.747,1.189,0.500,0.882,0.848,��,10.6,��
2017/12/11,12:40,0.894,1.470,0.934,1.751,1.191,0.500,0.882,0.846,��,9.2,��
2017/12/11,12:50,0.895,1.472,0.933,1.749,1.191,0.500,0.884,0.847,��,7.1,��
2017/12/11,13:00,0.895,1.472,0.932,1.749,1.190,0.499,0.883,0.845,���k��,7.2,��
2017/12/11,13:10,0.891,1.466,0.930,1.747,1.188,0.501,0.882,0.845,���k��,7.4,��
2017/12/11,13:20,0.894,1.466,0.931,1.748,1.191,0.500,0.883,0.843,���k��,6.8,��
2017/12/11,13:30,0.893,1.471,0.931,1.750,1.192,0.501,0.882,0.844,��,6.7,��
2017/12/11,13:40,0.894,1.468,0.931,1.748,1.192,0.499,0.882,0.845,��,5.8,��
2017/12/11,13:50,0.894,1.470,0.931,1.750,1.194,0.499,0.882,0.845,���k��,5.6,��
2017/12/11,14:00,0.892,1.468,0.930,1.748,1.189,0.499,0.881,0.846,���k��,4.7,��
2017/12/11,14:10,0.893,1.470,0.929,1.749,1.191,0.501,0.881,0.846,���k��,3.1,��
2017/12/11,14:20,0.893,1.465,0.930,1.749,1.190,0.501,0.882,0.845,�k�k��,5.6,��
2017/12/11,14:30,0.895,1.469,0.932,1.749,1.188,0.501,0.883,0.845,�k��,4.2,��
2017/12/11,14:40,0.895,1.468,0.934,1.750,1.193,0.500,0.883,0.847,�k��,7.2,��
2017/12/11,14:50,0.895,1.466,0.935,1.749,1.191,0.500,0.881,0.848,���k��,6.4,��
2017/12/11,15:00,0.895,1.468,0.934,1.750,1.188,0.501,0.880,0.848,�k��,5.6,��
2017/12/11,15:10,0.895,1.473,0.935,1.749,1.192,0.499,0.882,0.847,�k��,5.1,��
2017/12/11,15:20,0.895,1.473,0.935,1.751,1.188,0.500,0.882,0.847,�k��,3.9,��
2017/12/11,15:30,0.895,1.473,0.932,1.749,1.190,0.498,0.883,0.850,���k��,2.3,��
2017/12/11,15:40,0.897,1.475,0.937,1.750,1.188,0.500,0.883,0.849,���k��,4.5,��
2017/12/11,15:50,0.895,1.474,0.934,1.749,1.189,0.501,0.882,0.848,���k��,6.0,��
2017/12/11,16:00,0.895,1.476,0.935,1.752,1.185,0.496,0.884,0.849,���k��,8.0,��
2017/12/11,16:10,0.894,1.474,0.934,1.751,1.186,0.497,0.882,0.848,���k��,9.6,��
2017/12/11,16:20,0.896,1.475,0.931,1.752,1.190,0.498,0.883,0.847,���k��,9.1,��
2017/12/11,16:30,0.893,1.475,0.932,1.751,1.187,0.498,0.883,0.848,�k��,8.9,��
2017/12/11,16:40,0.898,1.475,0.932,1.751,1.192,0.498,0.883,0.847,�k��,9.3,��
2017/12/11,16:50,0.895,1.473,0.936,1.751,1.188,0.499,0.882,0.848,���k��,6.9,��
2017/12/11,17:00,0.895,1.476,0.934,1.749,1.190,0.498,0.883,0.848,���k��,8.9,��
2017/12/11,17:10,0.896,1.478,0.934,1.753,1.189,0.498,0.883,0.847,���k��,8.1,��
2017/12/11,17:20,0.897,1.477,0.934,1.753,1.187,0.499,0.883,0.849,�k��,7.9,��
2017/12/11,17:30,0.894,1.478,0.935,1.750,1.191,0.496,0.881,0.848,���k��,7.6,��
2017/12/11,17:40,0.895,1.478,0.935,1.751,1.191,0.497,0.881,0.847,���k��,7.4,��
2017/12/11,17:50,0.896,1.476,0.935,1.751,1.190,0.496,0.881,0.846,���k��,9.4,��
2017/12/11,18:00,0.894,1.478,0.933,1.752,1.189,0.498,0.882,0.849,���k��,7.4,��
2017/12/11,18:10,0.897,1.478,0.932,1.751,1.188,0.497,0.881,0.848,���k��,8.5,��
2017/12/11,18:20,0.894,1.478,0.935,1.750,1.192,0.497,0.880,0.848,���k��,6.4,��
2017/12/11,18:30,0.895,1.478,0.933,1.750,1.190,0.498,0.881,0.848,�k�k��,4.1,��
2017/12/11,18:40,0.896,1.477,0.933,1.751,1.190,0.498,0.881,0.848,�k��,4.0,��
2017/12/11,18:50,0.895,1.478,0.934,1.749,1.190,0.499,0.883,0.847,���k��,6.0,��
2017/12/11,19:00,0.895,1.479,0.935,1.751,1.189,0.498,0.883,0.847,���k��,9.0,��
2017/12/11,19:10,0.896,1.479,0.932,1.752,1.190,0.497,0.882,0.849,��,6.9,��
2017/12/11,19:20,0.896,1.481,0.935,1.751,1.190,0.497,0.881,0.847,��,8.9,��
2017/12/11,19:30,0.895,1.479,0.932,1.752,1.191,0.498,0.881,0.847,���k��,9.5,��
2017/12/11,19:40,0.894,1.479,0.935,1.750,1.192,0.497,0.881,0.847,��,9.5,��
2017/12/11,19:50,0.896,1.478,0.934,1.750,1.190,0.498,0.879,0.847,��,8.9,��
2017/12/11,20:00,0.896,1.476,0.932,1.751,1.193,0.499,0.880,0.846,��,9.9,��
2017/12/11,20:10,0.897,1.478,0.933,1.751,1.192,0.497,0.880,0.849,��,7.5,��
2017/12/11,20:20,0.895,1.476,0.934,1.754,1.192,0.497,0.877,0.848,��,10.3,��
2017/12/11,20:30,0.894,1.480,0.934,1.755,1.191,0.497,0.881,0.847,���k��,11.6,��
2017/12/11,20:40,0.894,1.479,0.933,1.752,1.190,0.498,0.881,0.848,���k��,12.2,��
2017/12/11,20:50,0.894,1.478,0.932,1.750,1.188,0.497,0.880,0.848,���k��,12.1,��
2017/12/11,21:00,0.894,1.477,0.932,1.752,1.188,0.497,0.881,0.848,��,10.2,��
2017/12/11,21:10,0.894,1.477,0.933,1.751,1.189,0.499,0.882,0.846,��,11.1,��
2017/12/11,21:20,0.894,1.478,0.931,1.752,1.192,0.497,0.882,0.847,��,9.3,��
2017/12/11,21:30,0.895,1.478,0.933,1.755,1.191,0.497,0.882,0.848,��,6.6,��
2017/12/11,21:40,0.892,1.478,0.934,1.753,1.190,0.498,0.883,0.847,��,6.6,��
2017/12/11,21:50,0.895,1.479,0.933,1.751,1.190,0.497,0.882,0.846,��,6.0,��
2017/12/11,22:00,0.894,1.477,0.933,1.752,1.187,0.498,0.883,0.847,���k��,5.7,��
2017/12/11,22:10,0.894,1.478,0.932,1.755,1.190,0.497,0.881,0.848,���k��,7.1,��
2017/12/11,22:20,0.893,1.478,0.933,1.753,1.190,0.498,0.882,0.846,���k��,6.3,��
2017/12/11,22:30,0.894,1.479,0.933,1.755,1.190,0.498,0.882,0.848,��,5.9,��
2017/12/11,22:40,0.894,1.479,0.931,1.749,1.188,0.497,0.883,0.846,���k��,10.6,��
2017/12/11,22:50,0.893,1.478,0.932,1.754,1.189,0.497,0.881,0.849,��,9.9,��
2017/12/11,23:00,0.894,1.477,0.932,1.752,1.191,0.497,0.880,0.847,���k��,9.9,��
2017/12/11,23:10,0.893,1.481,0.934,1.752,1.192,0.498,0.882,0.847,��,7.9,��
2017/12/11,23:20,0.894,1.475,0.934,1.751,1.190,0.496,0.882,0.848,��,8.7,��
2017/12/11,23:30,0.893,1.479,0.932,1.752,1.189,0.497,0.882,0.847,��,10.4,��
2017/12/11,23:40,0.893,1.476,0.932,1.751,1.190,0.498,0.882,0.847,��,9.8,��
2017/12/11,23:50,0.892,1.476,0.932,1.752,1.191,0.497,0.881,0.847,��,10.8,��
